BEIDOU-3 M23 (C45)

Last updated on Sat Sep 19 2026 00:03:28 GMT+0000 (Coordinated Universal Time)

1 44543U 19061B 26259.96057082 -.00000007 00000+0 00000+0 0 9994 2 44543 54.3920 179.6030 0006131 3.2146 200.0254 1.86227772 47509
UTC large
Height (km)
Speed (km/s)
/
Latitude / Longitude
Inclination (degrees)
Orbital Period (minutes)
Azimuth
Elevation
Range (km)
Doppler Factor

Next 0 passes for location: London (51.5072 / 0.1276)

No passes found over London.
BEIDOU-3 M23 (C45)